This demonstration page uses our WeatherBlox Daily Observations layout. Learn more.

Left ArrowRight Arrow

Hourly Observations for December 9, 2022

Temp ( °F °C ) Dew Point ( °F °C ) Humidity (%) Winds ( mph kmh ) Pressure ( in mb ) Visibility ( mi km ) Precip ( " mm )
12:55 am 00:55 Cloudy with Mist and Fog 34 1.2 34 1.2 100 100 W 10 17 30.08 1019 2 2 0.00 0.00
1:55 am 01:55 Cloudy with Mist and Fog 34 1 34 0.9 99 99 W 10 17 30.08 1019 2 2 0.00 0.00
2:55 am 02:55 Cloudy with Mist and Fog 33 0.5 31 -0.4 94 94 WNW 10 17 30.09 1019 3 5 0.00 0.00
3:55 am 03:55 Cloudy with Mist and Fog 33 0.7 33 0.3 97 97 WNW 10 17 30.09 1019 3 5 0.00 0.00
4:55 am 04:55 Cloudy with Mist and Fog 34 1.3 34 1.2 99 99 WNW 9 15 30.11 1020 3 5 0.00 0.00
5:55 am 05:55 Cloudy with Mist and Fog 35 1.5 35 1.4 99 99 WNW 13 20 30.12 1020 3 5 0.00 0.00
6:10 am 06:10 Cloudy 36 2 34 1 93 93 NW 13 20 30.13 1020 10 16 0.00 0.00
6:55 am 06:55 Cloudy with Mist and Fog 35 1.4 34 1.3 99 99 WNW 8 13 30.15 1021 3 5 0.00 0.00
8:08 am 08:08 Cloudy 34 1 34 1 100 100 WNW 12 19 30.18 1022 9 14 0.00 0.00
8:55 am 08:55 Cloudy 34 1.2 34 1.1 99 99 NW 12 19 30.18 1022 10 16 0.00 0.00
9:55 am 09:55 Cloudy 35 1.7 34 1.3 97 97 NW 10 17 30.20 1023 10 16 0.00 0.00
10:55 am 10:55 Cloudy 35 1.9 34 1.3 96 96 NNW 9 15 30.21 1023 10 16 0.00 0.00
11:40 am 11:40 Cloudy 36 2 34 1 93 93 NW 8 13 30.21 1023 10 16 0.00 0.00
11:55 am 11:55 Cloudy 36 2.3 34 1.1 92 92 WNW 6 9 30.20 1023 10 16 0.00 0.00
12:10 pm 12:10 Cloudy 37 3 34 1 87 87 NW 8 13 30.20 1023 10 16 0.00 0.00
12:40 pm 12:40 Cloudy 37 3 34 1 87 87 WNW 6 9 30.19 1022 10 16 0.00 0.00
12:55 pm 12:55 Cloudy 37 2.8 33 0.7 86 86 WNW 5 7 30.19 1022 10 16 0.00 0.00
1:55 pm 13:55 Cloudy 37 2.9 33 0.8 86 86 WNW 6 9 30.19 1022 10 16 0.00 0.00
2:55 pm 14:55 Cloudy 37 2.8 33 0.5 85 85 NW 3 6 30.18 1022 10 16 0.00 0.00
3:55 pm 15:55 Cloudy 37 2.7 33 0.4 85 85 WNW 5 7 30.20 1023 10 16 0.00 0.00
4:55 pm 16:55 Cloudy 37 2.6 33 0.3 85 85 Calm 30.19 1022 10 16 0.00 0.00
5:55 pm 17:55 Cloudy 36 2.2 33 0.6 89 89 SSW 6 9 30.19 1022 10 16 0.00 0.00
6:55 pm 18:55 Cloudy 36 2.2 33 0.3 87 87 SSW 5 7 30.20 1023 10 16 0.00 0.00
7:55 pm 19:55 Cloudy 35 1.9 32 0.1 88 88 SW 6 9 30.20 1023 10 16 0.00 0.00
8:28 pm 20:28 Cloudy 36 2 32 0 87 87 SW 7 11 30.20 1023 10 16 0.00 0.00
8:55 pm 20:55 Cloudy 35 1.4 32 -0.1 90 90 SSW 6 9 30.19 1023 10 16 0.00 0.00
9:55 pm 21:55 Cloudy 34 1.1 32 -0.1 92 92 SSE 3 6 30.19 1023 10 16 0.00 0.00
10:25 pm 22:25 Cloudy 34 1 32 0 93 93 SSE 6 9 30.18 1022 10 16 0.00 0.00
10:55 pm 22:55 Cloudy with Mist and Fog 34 1 32 0.1 94 94 SSW 7 11 30.21 1023 7 11 0.00 0.00
11:55 pm 23:55 Cloudy with Mist and Fog 33 0.6 32 -0.1 95 95 S 6 9 30.21 1023 3 5 0.00 0.00

Powered by AerisWeather